When you browse on this site, cookies collect data to enhance your experience and personalize the content and advertising you see.
Visit our Privacy Policy to learn more. By continuing to use the site, you agree to this use of cookies and data.
  • In Österreich
  • Länderverzeichnis
  • Für 7 Tage
  • Wassertemperatur
  • Satellitenkarten
  • Wetterkarte
  • News
  • Widgets
  • user-avatar
    Anmelden

    Stündliche Wetter Albany

    Heute, 19 Juli, Freitag

    Zeit Temperatur Niederschläge Wind Luftdruck Luftfeuchtigkeit
    00:00 +12°C° 0 mm 3 m/S 755 mmHg 87%
    01:00 +11°C° 0 mm 4 m/S 755 mmHg 90%
    02:00 +10°C° 0 mm 5 m/S 754 mmHg 92%
    03:00 +10°C° 0 mm 5 m/S 753 mmHg 92%
    04:00 +10°C° 0 mm 5 m/S 753 mmHg 92%
    05:00 +9°C° 0 mm 5 m/S 753 mmHg 92%
    06:00 +10°C° 0 mm 5 m/S 752 mmHg 92%
    07:00 +10°C° 0 mm 5 m/S 752 mmHg 92%
    08:00 +11°C° 0 mm 6 m/S 752 mmHg 92%
    09:00 +13°C° 0.1 mm 6 m/S 751 mmHg 85%
    10:00 +14°C° 0.1 mm 6 m/S 751 mmHg 78%
    11:00 +15°C° 0.1 mm 7 m/S 750 mmHg 70%
    12:00 +16°C° 0 mm 7 m/S 749 mmHg 66%
    13:00 +17°C° 0 mm 7 m/S 748 mmHg 61%
    14:00 +17°C° 0 mm 7 m/S 747 mmHg 56%
    15:00 +16°C° 1.3 mm 8 m/S 746 mmHg 67%
    16:00 +13°C° 1.3 mm 8 m/S 746 mmHg 79%
    17:00 +11°C° 1.3 mm 9 m/S 746 mmHg 90%
    18:00 +11°C° 0.9 mm 8 m/S 746 mmHg 90%
    19:00 +10°C° 0.9 mm 8 m/S 747 mmHg 89%
    20:00 +9°C° 0.9 mm 7 m/S 747 mmHg 89%
    21:00 +9°C° 0.5 mm 7 m/S 748 mmHg 88%
    22:00 +9°C° 0.5 mm 7 m/S 749 mmHg 87%
    23:00 +8°C° 0.5 mm 7 m/S 750 mmHg 86%

    Morgen, 20 Juli, Samstag

    Zeit Temperatur Niederschläge Wind Luftdruck Luftfeuchtigkeit
    00:00 +8°C° 0.3 mm 7 m/S 750 mmHg 87%
    01:00 +8°C° 0.3 mm 7 m/S 751 mmHg 88%
    02:00 +6°C° 0.3 mm 7 m/S 751 mmHg 89%
    03:00 +6°C° 0.3 mm 7 m/S 752 mmHg 88%
    04:00 +6°C° 0.3 mm 7 m/S 752 mmHg 87%
    05:00 +6°C° 0.3 mm 7 m/S 752 mmHg 87%
    06:00 +6°C° 0.1 mm 7 m/S 753 mmHg 86%
    07:00 +8°C° 0.1 mm 7 m/S 754 mmHg 85%
    08:00 +8°C° 0.1 mm 7 m/S 755 mmHg 84%
    09:00 +9°C° 0.1 mm 8 m/S 755 mmHg 78%
    10:00 +10°C° 0.1 mm 9 m/S 756 mmHg 72%
    11:00 +11°C° 0.1 mm 9 m/S 756 mmHg 67%
    12:00 +11°C° 0.1 mm 9 m/S 756 mmHg 68%
    13:00 +11°C° 0.1 mm 9 m/S 756 mmHg 70%
    14:00 +11°C° 0.1 mm 8 m/S 756 mmHg 71%
    15:00 +11°C° 0 mm 8 m/S 756 mmHg 71%
    16:00 +11°C° 0 mm 8 m/S 756 mmHg 71%
    17:00 +11°C° 0 mm 7 m/S 756 mmHg 71%
    18:00 +11°C° 0.1 mm 7 m/S 756 mmHg 74%
    19:00 +11°C° 0.1 mm 8 m/S 756 mmHg 77%
    20:00 +11°C° 0.1 mm 8 m/S 756 mmHg 80%
    21:00 +11°C° 0.1 mm 8 m/S 756 mmHg 82%
    22:00 +11°C° 0.1 mm 7 m/S 756 mmHg 84%
    23:00 +11°C° 0.1 mm 7 m/S 756 mmHg 86%

    übermorgen, 21 Juli, Sonntag

    Zeit Temperatur Niederschläge Wind Luftdruck Luftfeuchtigkeit
    00:00 +11°C° 0.1 mm 8 m/S 756 mmHg 85%
    01:00 +12°C° 0.1 mm 8 m/S 755 mmHg 84%
    02:00 +12°C° 0.1 mm 8 m/S 755 mmHg 83%
    03:00 +12°C° 0.1 mm 8 m/S 755 mmHg 83%
    04:00 +12°C° 0.1 mm 8 m/S 754 mmHg 83%
    05:00 +12°C° 0.1 mm 8 m/S 754 mmHg 83%
    06:00 +12°C° 0.1 mm 9 m/S 754 mmHg 84%
    07:00 +12°C° 0.1 mm 9 m/S 754 mmHg 84%
    08:00 +11°C° 0.1 mm 9 m/S 754 mmHg 84%
    09:00 +12°C° 0.2 mm 9 m/S 754 mmHg 84%
    10:00 +12°C° 0.2 mm 9 m/S 754 mmHg 83%
    11:00 +12°C° 0.2 mm 9 m/S 754 mmHg 82%
    12:00 +12°C° 0.2 mm 9 m/S 754 mmHg 82%
    13:00 +12°C° 0.2 mm 9 m/S 753 mmHg 81%
    14:00 +13°C° 0.2 mm 9 m/S 753 mmHg 81%
    15:00 +12°C° 0.2 mm 9 m/S 753 mmHg 80%
    16:00 +12°C° 0.2 mm 10 m/S 754 mmHg 79%
    17:00 +12°C° 0.2 mm 10 m/S 754 mmHg 78%
    18:00 +12°C° 0 mm 10 m/S 754 mmHg 76%
    19:00 +12°C° 0 mm 9 m/S 755 mmHg 74%
    20:00 +12°C° 0 mm 9 m/S 755 mmHg 72%
    21:00 +11°C° 0 mm 9 m/S 755 mmHg 73%
    22:00 +11°C° 0 mm 9 m/S 755 mmHg 74%
    23:00 +10°C° 0 mm 9 m/S 755 mmHg 74%

    22 Juli, Montag

    Zeit Temperatur Niederschläge Wind Luftdruck Luftfeuchtigkeit
    00:00 +10°C° 0.1 mm 9 m/S 755 mmHg 73%
    01:00 +10°C° 0.1 mm 9 m/S 756 mmHg 72%
    02:00 +10°C° 0.1 mm 9 m/S 756 mmHg 71%
    03:00 +10°C° 0.1 mm 8 m/S 756 mmHg 71%
    04:00 +10°C° 0.1 mm 8 m/S 756 mmHg 71%
    05:00 +10°C° 0.1 mm 8 m/S 757 mmHg 71%
    06:00 +9°C° 0.1 mm 8 m/S 757 mmHg 72%
    07:00 +9°C° 0.1 mm 7 m/S 758 mmHg 72%
    08:00 +9°C° 0.1 mm 7 m/S 758 mmHg 73%
    09:00 +10°C° 0.1 mm 7 m/S 759 mmHg 72%
    10:00 +10°C° 0.1 mm 7 m/S 759 mmHg 71%
    11:00 +10°C° 0.1 mm 7 m/S 760 mmHg 70%
    12:00 +10°C° 0.1 mm 7 m/S 759 mmHg 69%
    13:00 +10°C° 0.1 mm 7 m/S 759 mmHg 69%
    14:00 +10°C° 0.1 mm 7 m/S 759 mmHg 69%
    15:00 +10°C° 0.1 mm 6 m/S 759 mmHg 71%
    16:00 +10°C° 0.1 mm 6 m/S 760 mmHg 72%
    17:00 +9°C° 0.1 mm 6 m/S 760 mmHg 73%
    18:00 +9°C° 0.1 mm 5 m/S 760 mmHg 76%
    19:00 +9°C° 0.1 mm 5 m/S 761 mmHg 79%
    20:00 +8°C° 0.1 mm 5 m/S 761 mmHg 82%
    21:00 +8°C° 0.1 mm 5 m/S 761 mmHg 83%
    22:00 +8°C° 0.1 mm 5 m/S 761 mmHg 84%
    23:00 +8°C° 0.1 mm 5 m/S 762 mmHg 85%

    23 Juli, Dienstag

    Zeit Temperatur Niederschläge Wind Luftdruck Luftfeuchtigkeit
    00:00 +8°C° 0 mm 6 m/S 762 mmHg 85%
    01:00 +8°C° 0 mm 6 m/S 761 mmHg 85%
    02:00 +9°C° 0 mm 6 m/S 761 mmHg 86%
    03:00 +9°C° 0.1 mm 6 m/S 761 mmHg 85%
    04:00 +10°C° 0.1 mm 6 m/S 761 mmHg 85%
    05:00 +10°C° 0.1 mm 6 m/S 762 mmHg 84%
    06:00 +10°C° 0.2 mm 5 m/S 762 mmHg 86%
    07:00 +12°C° 0.2 mm 5 m/S 763 mmHg 87%
    08:00 +12°C° 0.2 mm 5 m/S 763 mmHg 88%
    09:00 +13°C° 0.2 mm 5 m/S 763 mmHg 86%
    10:00 +13°C° 0.2 mm 5 m/S 764 mmHg 84%
    11:00 +14°C° 0.2 mm 5 m/S 764 mmHg 83%
    12:00 +14°C° 0.2 mm 4 m/S 763 mmHg 82%
    13:00 +15°C° 0.2 mm 4 m/S 763 mmHg 81%
    14:00 +15°C° 0.2 mm 4 m/S 763 mmHg 80%
    15:00 +14°C° 0.1 mm 4 m/S 763 mmHg 81%
    16:00 +14°C° 0.1 mm 3 m/S 763 mmHg 82%
    17:00 +13°C° 0.1 mm 3 m/S 764 mmHg 83%
    18:00 +12°C° 0 mm 3 m/S 764 mmHg 85%
    19:00 +11°C° 0 mm 3 m/S 764 mmHg 87%
    20:00 +10°C° 0 mm 3 m/S 765 mmHg 89%
    21:00 +10°C° 0 mm 3 m/S 764 mmHg 89%
    22:00 +10°C° 0 mm 4 m/S 764 mmHg 90%
    23:00 +8°C° 0 mm 4 m/S 764 mmHg 91%

    24 Juli, Mittwoch

    Zeit Temperatur Niederschläge Wind Luftdruck Luftfeuchtigkeit
    00:00 +8°C° 0 mm 4 m/S 764 mmHg 91%
    01:00 +8°C° 0 mm 4 m/S 764 mmHg 92%
    02:00 +8°C° 0 mm 4 m/S 764 mmHg 93%
    03:00 +8°C° 0 mm 4 m/S 763 mmHg 93%
    04:00 +8°C° 0 mm 4 m/S 763 mmHg 93%
    05:00 +8°C° 0 mm 4 m/S 763 mmHg 93%
    06:00 +8°C° 0 mm 4 m/S 763 mmHg 92%
    07:00 +10°C° 0 mm 4 m/S 763 mmHg 91%
    08:00 +10°C° 0 mm 4 m/S 764 mmHg 90%
    09:00 +12°C° 0 mm 5 m/S 763 mmHg 85%
    10:00 +13°C° 0 mm 6 m/S 763 mmHg 80%
    11:00 +14°C° 0 mm 6 m/S 763 mmHg 74%
    12:00 +15°C° 0 mm 6 m/S 763 mmHg 72%
    13:00 +15°C° 0 mm 6 m/S 762 mmHg 69%
    14:00 +16°C° 0 mm 6 m/S 761 mmHg 66%
    15:00 +15°C° 0 mm 5 m/S 761 mmHg 69%
    16:00 +15°C° 0 mm 5 m/S 761 mmHg 72%
    17:00 +14°C° 0 mm 5 m/S 761 mmHg 75%
    18:00 +13°C° 0 mm 5 m/S 761 mmHg 80%
    19:00 +12°C° 0 mm 5 m/S 761 mmHg 85%
    20:00 +10°C° 0 mm 5 m/S 761 mmHg 90%
    21:00 +10°C° 0 mm 5 m/S 761 mmHg 90%
    22:00 +10°C° 0 mm 5 m/S 761 mmHg 91%
    23:00 +10°C° 0 mm 5 m/S 761 mmHg 92%
    Mehr zeigen